Current weather by "City, St" or "zip code"  
 
Advertise Here

Current Conditions: Sandpoint, Sandpoint Airport, ID

Fair


36.0 F

Last Updated on Jan 20 2021, 11:55 am PST
Humidity: 75%
Wind Speed: S 6.9 mph
Barometer 30.11 in
Dewpoint: 28.4 F
Visibility: 10.00 mi
Precip: --
Heat Index: NA
Wind Chill: 30 F
Current conditions at:

Sandpoint, Sandpoint Airport, ID (KSZT)

Lat: 48.29944 Lon: 116.56

Local Radar Image active severe weather and emergency alerts image image weather storm and storm spotter reports image weather observation monitoring service image
Local
Radar
Active
Alerts
Storm Reports Obs
Monitoring

Sign-up For Email & Text Message Weather Alert Notification Services


Advertise Here

Observation History for Sandpoint, Sandpoint Airport, ID


Time Wind
(mph)
Vis
(mi)
Weather Precip (in) Temperature (F) Relative
Humidity
Wind
Chill
(F)
Heat
Index
(F)
Pressure
Air Dwpt altimeter
(in)
sea level
(mb)
Rmks
11:55 am PST S 6.9 10.00 Fair -- 36.0 28.4 75% 30 NA 30.11 M
10:55 am PST S 3.5 10.00 Fair -- 32.0 28.4 87% NA NA 30.14 M
9:55 am PST N 0.0 10.00 Fair -- 30.0 26.6 86% NA NA 30.16 M
8:55 am PST N 0.0 10.00 Fair -- 28.0 24.8 86% NA NA 30.15 M
7:55 am PST N 0.0 10.00 Fair -- 23.0 23.0 100% NA NA 30.15 M
6:55 am PST N 0.0 10.00 Fair -- 27.0 23.0 86% NA NA 30.15 M
5:55 am PST N 0.0 10.00 Fair -- 27.0 26.6 100% NA NA 30.15 M
5:35 am PST W 3.5 10.00 Fair -- 27.0 26.6 100% NA NA 30.15 M
4:55 am PST N 0.0 10.00 Fair -- 28.0 28.4 100% NA NA 30.16 M
3:55 am PST SE 5.8 10.00 Fair -- 30.0 26.6 86% 24 NA 30.16 M
2:55 am PST SW 4.6 10.00 Fair -- 32.0 26.6 80% 27 NA 30.17 M
1:55 am PST N 0.0 10.00 Overcast -- 32.0 28.4 87% NA NA 30.19 M
12:55 am PST S 3.5 10.00 Overcast -- 32.0 28.4 87% NA NA 30.20 M
11:55 pm PST N 0.0 10.00 Mostly Cloudy -- 32.0 28.4 87% NA NA 30.21 M
10:55 pm PST S 4.6 10.00 Overcast -- 34.0 28.4 81% 30 NA 30.22 M
9:55 pm PST S 5.8 10.00 Overcast -- 32.0 28.4 87% 26 NA 30.23 M
8:55 pm PST SW 6.9 10.00 Overcast -- 32.0 28.4 87% 26 NA 30.24 M
7:55 pm PST S 6.9 10.00 Overcast -- 32.0 28.4 87% 26 NA 30.24 M
6:55 pm PST SW 5.8 10.00 Overcast -- 32.0 28.4 87% 26 NA 30.26 M
5:55 pm PST SW 6.9 10.00 Overcast -- 32.0 28.4 87% 26 NA 30.30 M
4:55 pm PST S 5.8 10.00 Overcast -- 34.0 28.4 81% 29 NA 30.32 M
3:55 pm PST SW 5.8 10.00 Overcast -- 34.0 28.4 81% 29 NA 30.32 M
2:55 pm PST S 6.9 10.00 Overcast -- 34.0 28.4 81% 28 NA 30.35 M
1:55 pm PST S 6.9 10.00 Overcast -- 34.0 28.4 81% 28 NA 30.38 M

Regional Weather Observation


Boundary County Airport, ID (K65S)

Fair
32.0 F

Coeur dAlene Airport - Pappy Boyington Field, ID (KCOE)

Fair
35.0 F

Deer Park, Deer Park Airport, WA (KDEW)

Fair
34.0 F

Spokane, Felts Field, WA (KSFF)

Fair
33.0 F

Spokane, Spokane International Airport, WA (KGEG)

Mostly Cloudy
30.0 F

Fairchild Air Force Base, WA (KSKA)

Fair
30.0 F